BEL8KG LSZH-EBBR

Flight info

Callsign BEL8KG
Flight time N/A
Altitude 30000
Route VEBIT T51 LASUN T14 LUMEL T10 TORPA DCT EDOPI DCT GIVOR DCT SORAL DCT IBERA N853 DIK Y37 BATTY
Aircraft A319/M-SDE3FGHIRWY/LB1

Departure

Time 2026-05-05 19:23
Airport Zürich Airport (LSZH)

Arrival

Time N/A
Airport Brussels Airport (EBBR)
Time Latitude Longitude Altitude Speed Heading
2026-05-05 18:28 47.45430 8.55691 1397 ft 0 kts 186°
2026-05-05 19:07 47.45431 8.55691 1397 ft 0 kts 186°
2026-05-05 19:10 47.45444 8.55693 1397 ft 2 kts 186°
2026-05-05 19:11 47.45459 8.55695 1397 ft 2 kts 186°
2026-05-05 19:11 47.45475 8.55697 1397 ft 2 kts 186°
2026-05-05 19:11 47.45490 8.55700 1397 ft 2 kts 186°
2026-05-05 19:11 47.45498 8.55701 1397 ft 1 kts 178°
2026-05-05 19:12 47.45511 8.55691 1397 ft 2 kts 121°
2026-05-05 19:12 47.45514 8.55680 1396 ft 1 kts 93°
2026-05-05 19:12 47.45514 8.55671 1396 ft 0 kts 96°
2026-05-05 19:15 47.45514 8.55672 1396 ft 0 kts 96°
2026-05-05 19:15 47.45512 8.55695 1397 ft 4 kts 97°
2026-05-05 19:15 47.45507 8.55753 1398 ft 6 kts 96°
2026-05-05 19:16 47.45521 8.55825 1399 ft 8 kts 44°
2026-05-05 19:16 47.45580 8.55845 1399 ft 10 kts
2026-05-05 19:16 47.45632 8.55884 1398 ft 8 kts 75°
2026-05-05 19:16 47.45629 8.55969 1400 ft 8 kts 96°
2026-05-05 19:17 47.45624 8.56054 1402 ft 7 kts 96°
2026-05-05 19:17 47.45618 8.56142 1404 ft 9 kts 96°
2026-05-05 19:17 47.45614 8.56234 1406 ft 5 kts 78°
2026-05-05 19:17 47.45618 8.56248 1406 ft 0 kts 63°
2026-05-05 19:18 47.45618 8.56249 1406 ft 0 kts 59°
2026-05-05 19:18 47.45633 8.56263 1406 ft 4 kts 20°
2026-05-05 19:19 47.45683 8.56270 1405 ft 9 kts
2026-05-05 19:19 47.45761 8.56284 1403 ft 12 kts
2026-05-05 19:19 47.45850 8.56300 1402 ft 11 kts
2026-05-05 19:19 47.45932 8.56312 1402 ft 12 kts
2026-05-05 19:20 47.45995 8.56322 1403 ft 3 kts
2026-05-05 19:20 47.46011 8.56325 1402 ft 0 kts
2026-05-05 19:21 47.46015 8.56325 1402 ft 2 kts
2026-05-05 19:21 47.46050 8.56330 1401 ft 7 kts
2026-05-05 19:21 47.46106 8.56339 1401 ft 9 kts
2026-05-05 19:21 47.46176 8.56351 1400 ft 8 kts 14°
2026-05-05 19:22 47.46198 8.56349 1400 ft 2 kts 321°
2026-05-05 19:22 47.46228 8.56310 1399 ft 16 kts 317°
2026-05-05 19:22 47.46524 8.55905 1391 ft 97 kts 317°
2026-05-05 19:22 47.47191 8.54996 1386 ft 161 kts 317°
2026-05-05 19:23 47.48057 8.53824 1893 ft 172 kts 316°
2026-05-05 19:23 47.48986 8.52721 2664 ft 174 kts 326°
2026-05-05 19:23 47.50000 8.51769 3342 ft 182 kts 326°
2026-05-05 19:23 47.51107 8.50699 3918 ft 197 kts 324°
2026-05-05 19:24 47.52262 8.49498 4506 ft 211 kts 318°
2026-05-05 19:24 47.53150 8.47749 5113 ft 221 kts 289°
2026-05-05 19:24 47.53511 8.45553 5989 ft 222 kts 278°
2026-05-05 19:24 47.53600 8.43313 6909 ft 220 kts 257°
2026-05-05 19:25 47.52986 8.41308 7793 ft 219 kts 236°
2026-05-05 19:25 47.52070 8.39502 8407 ft 231 kts 224°
2026-05-05 19:25 47.50624 8.38238 8724 ft 258 kts 197°
2026-05-05 19:25 47.48802 8.37755 8887 ft 271 kts 192°
2026-05-05 19:26 47.46933 8.37230 8863 ft 272 kts 194°
2026-05-05 19:26 47.45097 8.36551 8868 ft 272 kts 203°
2026-05-05 19:26 47.43483 8.35190 8859 ft 270 kts 219°
2026-05-05 19:26 47.42138 8.33245 8866 ft 271 kts 231°
2026-05-05 19:27 47.41108 8.30897 8993 ft 270 kts 243°
2026-05-05 19:27 47.40310 8.28404 9588 ft 276 kts 241°
2026-05-05 19:27 47.39287 8.25967 10289 ft 286 kts 234°
2026-05-05 19:27 47.38131 8.23518 10771 ft 303 kts 234°
2026-05-05 19:28 47.36871 8.20912 11211 ft 321 kts 233°
2026-05-05 19:28 47.35550 8.18220 11870 ft 329 kts 233°
2026-05-05 19:28 47.34201 8.15484 12723 ft 332 kts 233°
2026-05-05 19:28 47.32847 8.12743 13502 ft 335 kts 233°
2026-05-05 19:29 47.31468 8.09949 14237 ft 340 kts 233°
2026-05-05 19:29 47.30081 8.07138 14997 ft 343 kts 233°
2026-05-05 19:29 47.28750 8.04279 15692 ft 347 kts 240°
2026-05-05 19:29 47.27989 8.00911 16359 ft 354 kts 260°
2026-05-05 19:30 47.28070 7.97233 17079 ft 362 kts 279°
2026-05-05 19:30 47.28933 7.93756 17762 ft 368 kts 291°
2026-05-05 19:30 47.30011 7.90355 18366 ft 373 kts 292°
2026-05-05 19:30 47.31020 7.86845 18951 ft 374 kts 283°
2026-05-05 19:31 47.31622 7.83127 19588 ft 375 kts 278°
2026-05-05 19:31 47.32111 7.79351 20193 ft 378 kts 277°
2026-05-05 19:31 47.32613 7.75535 20777 ft 382 kts 278°
2026-05-05 19:31 47.33145 7.71699 21344 ft 385 kts 278°
2026-05-05 19:32 47.33714 7.67816 21891 ft 390 kts 281°
2026-05-05 19:32 47.34659 7.64081 22410 ft 399 kts 294°
2026-05-05 19:32 47.36179 7.60643 22952 ft 406 kts 304°
2026-05-05 19:32 47.37971 7.57361 23419 ft 410 kts 306°
2026-05-05 19:33 47.39767 7.54153 23894 ft 412 kts 306°
2026-05-05 19:33 47.41580 7.50864 24350 ft 416 kts 306°
2026-05-05 19:33 47.43415 7.47505 24800 ft 420 kts 305°
2026-05-05 19:33 47.45247 7.44135 25276 ft 423 kts 305°
2026-05-05 19:34 47.47074 7.40763 25720 ft 426 kts 305°
2026-05-05 19:34 47.48927 7.37339 26150 ft 429 kts 305°
2026-05-05 19:34 47.50795 7.33879 26570 ft 432 kts 304°
2026-05-05 19:35 47.54554 7.26908 27419 ft 437 kts 305°
2026-05-05 19:35 47.56474 7.23384 27822 ft 440 kts 305°
2026-05-05 19:35 47.58373 7.19905 28258 ft 442 kts 305°
2026-05-05 19:35 47.60310 7.16351 28709 ft 443 kts 305°
2026-05-05 19:36 47.62254 7.12780 28837 ft 445 kts 305°
2026-05-05 19:36 47.66143 7.05622 29132 ft 451 kts 305°
2026-05-05 19:36 47.68086 7.02041 29645 ft 450 kts 305°
2026-05-05 19:37 47.70060 6.98396 29875 ft 451 kts 305°
2026-05-05 19:37 47.74429 6.91762 29876 ft 459 kts 324°
2026-05-05 19:37 47.77309 6.89647 29882 ft 463 kts 339°
2026-05-05 19:38 47.80422 6.88414 29890 ft 464 kts 346°
2026-05-05 19:38 47.86743 6.86458 29886 ft 463 kts 347°
2026-05-05 19:39 47.93006 6.84434 29884 ft 463 kts 346°
2026-05-05 19:39 47.99245 6.82321 29882 ft 463 kts 346°
2026-05-05 19:40 48.05518 6.80181 29880 ft 463 kts 346°
2026-05-05 19:40 48.11809 6.78036 29878 ft 464 kts 346°
2026-05-05 19:41 48.18104 6.75901 29876 ft 464 kts 347°
2026-05-05 19:41 48.24377 6.73762 29872 ft 464 kts 347°
2026-05-05 19:42 48.30662 6.71614 29872 ft 464 kts 346°
2026-05-05 19:42 48.36906 6.69470 29870 ft 464 kts 347°
2026-05-05 19:43 48.43211 6.67299 29867 ft 463 kts 347°
2026-05-05 19:43 48.49448 6.65147 29855 ft 463 kts 347°
2026-05-05 19:44 48.55715 6.62980 29847 ft 463 kts 347°
2026-05-05 19:44 48.61951 6.60821 29847 ft 462 kts 347°
2026-05-05 19:45 48.68233 6.58635 29847 ft 462 kts 347°
2026-05-05 19:45 48.74470 6.56488 29845 ft 461 kts 348°
2026-05-05 19:46 48.80708 6.54355 29842 ft 460 kts 348°
2026-05-05 19:46 48.86943 6.52213 29839 ft 460 kts 348°
2026-05-05 19:47 48.93156 6.50075 29839 ft 459 kts 348°
2026-05-05 19:47 48.99348 6.47939 29639 ft 458 kts 348°
2026-05-05 19:47 49.02452 6.46868 29305 ft 456 kts 348°
2026-05-05 19:48 49.05513 6.45809 28950 ft 453 kts 348°
2026-05-05 19:48 49.08565 6.44751 28600 ft 451 kts 348°
2026-05-05 19:48 49.11632 6.43661 28240 ft 451 kts 347°
2026-05-05 19:48 49.14653 6.42470 27886 ft 452 kts 346°
2026-05-05 19:49 49.17682 6.41231 27525 ft 452 kts 346°
2026-05-05 19:49 49.19696 6.40398 27284 ft 450 kts 346°
2026-05-05 19:49 49.23720 6.38735 26811 ft 447 kts 346°
2026-05-05 19:49 49.26682 6.37511 26460 ft 444 kts 346°
2026-05-05 19:50 49.29640 6.36291 26105 ft 441 kts 346°
2026-05-05 19:50 49.32597 6.35070 25758 ft 439 kts 346°
2026-05-05 19:50 49.35529 6.33853 25410 ft 437 kts 345°
2026-05-05 19:50 49.38472 6.32624 25054 ft 435 kts 345°
2026-05-05 19:51 49.41380 6.31413 24706 ft 433 kts 345°
2026-05-05 19:51 49.44243 6.30224 24350 ft 430 kts 345°
2026-05-05 19:51 49.47134 6.29025 24011 ft 427 kts 345°
2026-05-05 19:51 49.49992 6.27837 23877 ft 427 kts 345°
2026-05-05 19:52 49.52829 6.26662 23851 ft 427 kts 345°
2026-05-05 19:52 49.55697 6.25485 23828 ft 427 kts 345°
2026-05-05 19:52 49.58546 6.24319 23822 ft 426 kts 345°
2026-05-05 19:52 49.61433 6.23135 23820 ft 426 kts 345°
2026-05-05 19:53 49.64281 6.21967 23812 ft 426 kts 345°
2026-05-05 19:53 49.67165 6.20783 23807 ft 426 kts 345°
2026-05-05 19:53 49.70011 6.19613 23805 ft 426 kts 345°
2026-05-05 19:53 49.72865 6.18442 23812 ft 426 kts 345°
2026-05-05 19:54 49.75729 6.17264 23819 ft 425 kts 345°
2026-05-05 19:54 49.78566 6.16092 23811 ft 425 kts 345°
2026-05-05 19:54 49.81428 6.14903 23811 ft 426 kts 345°
2026-05-05 19:54 49.84253 6.13496 23813 ft 427 kts 340°
2026-05-05 19:55 49.86980 6.11746 23811 ft 427 kts 335°
2026-05-05 19:55 49.89595 6.09653 23799 ft 427 kts 330°
2026-05-05 19:55 49.92169 6.07257 23799 ft 427 kts 328°
2026-05-05 19:55 49.94668 6.04843 23801 ft 426 kts 328°
2026-05-05 19:56 49.97157 6.02426 23803 ft 426 kts 328°
2026-05-05 19:56 49.99696 5.99962 23820 ft 426 kts 328°
2026-05-05 19:56 50.02190 5.97548 23813 ft 426 kts 328°
2026-05-05 19:56 50.04693 5.95129 23822 ft 426 kts 328°
2026-05-05 19:57 50.07225 5.92680 23639 ft 425 kts 328°
2026-05-05 19:57 50.08869 5.91089 23437 ft 423 kts 328°
2026-05-05 19:57 50.12183 5.87888 22930 ft 418 kts 328°
2026-05-05 19:57 50.14639 5.85527 22496 ft 415 kts 328°
2026-05-05 19:58 50.17081 5.83171 22043 ft 412 kts 328°
2026-05-05 19:58 50.19492 5.80837 21587 ft 408 kts 328°
2026-05-05 19:58 50.21892 5.78509 21129 ft 404 kts 328°
2026-05-05 19:58 50.24251 5.76217 20672 ft 401 kts 328°
2026-05-05 19:59 50.26611 5.73921 20205 ft 397 kts 328°
2026-05-05 19:59 50.28943 5.71648 19755 ft 393 kts 327°
2026-05-05 19:59 50.31226 5.69421 19303 ft 390 kts 328°
2026-05-05 19:59 50.33519 5.67178 18860 ft 387 kts 328°
2026-05-05 20:00 50.35774 5.64970 18421 ft 383 kts 327°
2026-05-05 20:00 50.38037 5.62754 17988 ft 380 kts 327°
2026-05-05 20:00 50.40236 5.60596 17549 ft 378 kts 327°
2026-05-05 20:00 50.42453 5.58419 17102 ft 376 kts 328°
2026-05-05 20:01 50.44658 5.56251 16660 ft 373 kts 327°
2026-05-05 20:01 50.46851 5.54090 16219 ft 371 kts 327°
2026-05-05 20:01 50.49030 5.51942 15778 ft 369 kts 328°
2026-05-05 20:01 50.51176 5.49823 15343 ft 368 kts 328°
2026-05-05 20:02 50.53354 5.47669 14905 ft 366 kts 328°
2026-05-05 20:02 50.55497 5.45550 14462 ft 364 kts 328°
2026-05-05 20:02 50.57615 5.43454 14025 ft 362 kts 328°
2026-05-05 20:02 50.59733 5.41354 13585 ft 361 kts 328°
2026-05-05 20:03 50.61847 5.39254 13124 ft 359 kts 329°
2026-05-05 20:03 50.63945 5.37172 12651 ft 357 kts 329°
2026-05-05 20:03 50.66040 5.35089 12175 ft 355 kts 329°
2026-05-05 20:03 50.68123 5.33010 11698 ft 353 kts 328°
2026-05-05 20:04 50.70171 5.30949 11213 ft 350 kts 327°
2026-05-05 20:04 50.71950 5.28347 10479 ft 355 kts 304°
2026-05-05 20:04 50.72784 5.24724 10006 ft 352 kts 276°
2026-05-05 20:04 50.72743 5.20924 9639 ft 344 kts 266°
2026-05-05 20:05 50.72591 5.17204 9243 ft 339 kts 267°
2026-05-05 20:05 50.72471 5.13550 8837 ft 333 kts 268°
2026-05-05 20:05 50.72384 5.09985 8617 ft 322 kts 268°
2026-05-05 20:05 50.72316 5.06485 8422 ft 311 kts 269°
2026-05-05 20:06 50.72264 5.03168 8217 ft 300 kts 269°
2026-05-05 20:06 50.72219 4.99962 7893 ft 290 kts 269°
2026-05-05 20:06 50.72179 4.96803 7384 ft 288 kts 269°
2026-05-05 20:06 50.72139 4.93653 6857 ft 287 kts 269°
2026-05-05 20:07 50.72098 4.90502 6368 ft 286 kts 270°
2026-05-05 20:07 50.72059 4.87408 5985 ft 284 kts 270°
2026-05-05 20:07 50.72018 4.84315 5614 ft 283 kts 270°
2026-05-05 20:07 50.71978 4.81204 5248 ft 282 kts 271°
2026-05-05 20:08 50.71989 4.78123 4980 ft 280 kts 275°
2026-05-05 20:08 50.72121 4.75084 4682 ft 280 kts 277°
2026-05-05 20:08 50.72277 4.72027 4376 ft 278 kts 277°
2026-05-05 20:08 50.72429 4.69007 4058 ft 277 kts 277°
2026-05-05 20:09 50.72645 4.66029 3701 ft 275 kts 282°
2026-05-05 20:09 50.72963 4.63090 3473 ft 267 kts 286°
2026-05-05 20:09 50.73388 4.60296 3188 ft 260 kts 290°
2026-05-05 20:09 50.73916 4.57580 2830 ft 255 kts 292°
2026-05-05 20:10 50.74441 4.54988 2778 ft 239 kts 292°
2026-05-05 20:10 50.74925 4.52566 2720 ft 225 kts 292°
2026-05-05 20:10 50.75384 4.50265 2583 ft 213 kts 296°
2026-05-05 20:10 50.75938 4.48217 2499 ft 199 kts 301°
2026-05-05 20:11 50.76598 4.46335 2422 ft 189 kts 315°
2026-05-05 20:11 50.77467 4.44836 2426 ft 183 kts 330°
2026-05-05 20:11 50.78579 4.44250 2273 ft 161 kts
2026-05-05 20:11 50.79599 4.44799 2067 ft 152 kts 27°
2026-05-05 20:12 50.80528 4.45468 1853 ft 145 kts 25°
2026-05-05 20:12 50.81473 4.46034 1675 ft 142 kts 22°
2026-05-05 20:12 50.82396 4.46529 1482 ft 139 kts 20°
2026-05-05 20:12 50.83311 4.46948 1279 ft 138 kts 18°
2026-05-05 20:13 50.84248 4.47331 1094 ft 139 kts 16°
2026-05-05 20:13 50.85185 4.47706 908 ft 138 kts 16°
2026-05-05 20:13 50.86118 4.48086 750 ft 139 kts 16°
2026-05-05 20:13 50.87053 4.48471 551 ft 138 kts 15°
2026-05-05 20:14 50.87971 4.48849 354 ft 135 kts 15°
2026-05-05 20:14 50.88878 4.49215 180 ft 135 kts 15°
2026-05-05 20:14 50.89750 4.49568 209 ft 134 kts 15°
2026-05-05 20:14 50.90661 4.49925 840 ft 137 kts 14°
2026-05-05 20:15 50.91604 4.49828 1530 ft 151 kts 339°
2026-05-05 20:15 50.92332 4.48496 2198 ft 179 kts 298°
2026-05-05 20:15 50.92620 4.46484 2745 ft 199 kts 281°
2026-05-05 20:15 50.92446 4.44215 2932 ft 219 kts 258°
2026-05-05 20:16 50.91943 4.41891 2987 ft 232 kts 246°
2026-05-05 20:16 50.90955 4.39784 2990 ft 239 kts 226°
2026-05-05 20:16 50.89756 4.37991 2990 ft 241 kts 217°
2026-05-05 20:16 50.88295 4.36814 2986 ft 232 kts 197°
2026-05-05 20:17 50.86755 4.36073 2991 ft 231 kts 193°
2026-05-05 20:17 50.85199 4.35453 2945 ft 230 kts 184°
2026-05-05 20:17 50.83702 4.35831 2738 ft 212 kts 143°
2026-05-05 20:17 50.82699 4.37371 2615 ft 193 kts 116°
2026-05-05 20:18 50.82054 4.39142 2529 ft 182 kts 112°
2026-05-05 20:18 50.81450 4.40875 2424 ft 178 kts 113°
2026-05-05 20:18 50.80847 4.42571 2181 ft 173 kts 109°
2026-05-05 20:18 50.80674 4.44293 1979 ft 154 kts 73°
2026-05-05 20:19 50.81160 4.45671 1705 ft 140 kts 37°
2026-05-05 20:19 50.82007 4.46340 1555 ft 136 kts 21°
2026-05-05 20:19 50.82909 4.46779 1368 ft 135 kts 18°
2026-05-05 20:19 50.83810 4.47151 1185 ft 135 kts 16°
2026-05-05 20:20 50.84738 4.47518 996 ft 137 kts 16°
2026-05-05 20:20 50.85656 4.47895 828 ft 138 kts 16°
2026-05-05 20:20 50.86588 4.48282 623 ft 138 kts 16°
2026-05-05 20:20 50.87511 4.48652 438 ft 135 kts 15°
2026-05-05 20:21 50.88406 4.49023 261 ft 134 kts 15°
2026-05-05 20:21 50.89292 4.49385 157 ft 125 kts 15°
2026-05-05 20:21 50.90006 4.49677 140 ft 72 kts 13°